San Marcos Municipal Airport
KHYI : now visible

Airfield :











YOU CAN JOIN US ON...

 
LOGIN :

Register | Disclaimer

   EN    FR    IT 

 









Legend :    VFR   Marginal VFR   IFR   Intensive IFR   Very Intensive IFR
Visi :
Ceiling :
>= 8 km
>= 3000ft
5 to 8 km
1000 to 3000 ft
1500m to 5 km
500 to 1000 ft
800 to 1500m
200 to 500 ft
< 800m
< 200 ft
Symbols :   Thunderstorms  Fog  Heavy snow  Heavy precipitations  Wind > 20 kt






- Airport Elevation : 597 ft


KHYI - San Marcos Municipal

CURRENT METAR :
  • 211356Z 03017G23KT 10SM OVC015 12/09 A3029 RMK AO2 SLP253 T01170094

EXPIRED METARs :
  • 211311Z 02020G25KT 10SM OVC015 11/09 A3026 RMK AO2
  • 211156Z 01018G22KT 10SM OVC012 11/10 A3021 RMK AO2 PK WND 01027/1141 SLP229 60001 70043 T01110100 10139 20111 53014
  • 211056Z AUTO 01016G23KT 10SM BKN012 OVC080 11/10 A3019 RMK AO2 SLP222 T01110100
  • 210956Z AUTO 01019G23KT 10SM OVC012 11/10 A3018 RMK AO2 SLP218 T01110100

TAF N/A
KZHU FIR / North America



MET'MAP, your aeronautical weather chart ! - Copyright ORBIFLY December 2007 - Disclaimer

ORBIFLY MET'MAP TEAM :

Programming & Development : Alexandra Zaïnal
Original concept : Baudouin d'Aumeries
Technical & hardware support : Manuel Goepfert
Assistance : Marc-Olivier Méhu




SOURCES & CREDITS :

   NOAA       Earth
Advisory